Username:
Password:
This is my DDRecall account: 
Remember Me: 



Stay On Sync - STARS✩✩✩(2nd NAOKI's style)

STARS✩✩✩(2nd NAOKI's style) - Heavy

Foot Rating (Pre-X): 7, (X): 9

Steps: 294, Freezes: 22, Shocks: 0

1st2nd3rd4th5thDDRMAXDDRMAX2ExtremeSupernovaSupernova 2XX2X3EuromixEuromix 2Solo 2000


1 (2)damienpa 632 / 632 (0)2012-01-31 22:38:21
2ranatalus 632 / 632 (0)2008-10-22 20:33:30
3John Desire 632 / 632 (0)2008-10-23 08:01:56
4dr.d 632 / 632 (0)2008-10-23 08:04:50
5maxx_revolution 632 / 632 (0)2008-10-23 08:42:03
6Dark Ptt 632 / 632 (0)2008-10-23 11:00:38
7Goemon! 632 / 632 (0)2008-10-23 11:05:37
8AndyFreak457 632 / 632 (0)2008-10-23 12:19:52
9Boochypa 632 / 632 (0)2008-10-23 12:46:11
10El Estepper =D 632 / 632 (0)2008-10-23 15:45:51
11MegamanX 632 / 632 (0)2008-10-23 15:50:05
12Skeeter 632 / 632 (0)2008-10-23 16:38:44
13riodo 632 / 632 (0)2008-10-23 18:39:16
14Leon Twix 632 / 632 (0)2008-10-23 21:32:15
15OniCourseMusha 632 / 632 (0)2008-10-24 05:49:22
16[team bpm jodio] ronx 632 / 632 (0)2008-10-24 10:55:22
17Nickolas "Electrical Socket Johnson" J. Mariani 632 / 632 (0)2008-10-24 13:25:20
18DJ Sterf 632 / 632 (0)2008-10-24 14:59:32
19Jan 632 / 632 (0)2008-10-24 20:53:43
20CoreyBlaze 632 / 632 (0)2008-10-24 21:08:52
21Romanedge 632 / 632 (0)2008-10-25 01:40:41
22JJSz 632 / 632 (0)2008-10-26 03:26:40
23hf230 632 / 632 (0)2008-10-26 14:00:53
24daandrew19 632 / 632 (0)2008-10-27 10:13:41
25CartoonHero 632 / 632 (0)2008-10-28 01:26:48
26Milo234 632 / 632 (0)2008-10-28 16:29:04
27drano 632 / 632 (0)2008-10-28 17:35:35
28SolarSeto 632 / 632 (0)2008-10-31 11:05:51
29Frozenchao 632 / 632 (0)2008-11-01 20:31:52
30AKK_g.m.d. 632 / 632 (0)2008-11-03 04:26:15
31EVAAAN 632 / 632 (0)2008-11-03 15:16:21
32aznator 632 / 632 (0)2008-11-07 15:37:53
33theonecalledy2ckt 632 / 632 (0)2008-11-19 03:21:45
34Overgate [Sowasowa] 632 / 632 (0)2008-11-21 23:01:52
35camsta4 632 / 632 (0)2008-12-02 08:22:01
36PARANO!A Boi 632 / 632 (0)2008-12-02 23:45:13
37Genosync 632 / 632 (0)2008-12-03 03:47:49
38superkirby7 632 / 632 (0)2008-12-07 20:33:36
394can.brian 632 / 632 (0)2008-12-08 00:57:46
40BlAcK MAGIK 632 / 632 (0)2008-12-10 17:22:04
41Pink Dinosaur 632 / 632 (0)2008-12-11 02:44:24
42Ghaleon 632 / 632 (0)2008-12-11 14:24:01
43sleeve 632 / 632 (0)2008-12-12 22:55:53
44DDRman 632 / 632 (0)2008-12-17 00:36:12
45Sword 632 / 632 (0)2009-01-03 17:23:04
46BNS.Nima 632 / 632 (0)2009-01-20 12:52:09
47Jon owns 3x solo! 632 / 632 (0)2009-01-27 16:07:52
48Poochy 632 / 632 (0)2009-02-04 22:37:31
49Sj 632 / 632 (0)2009-03-01 00:57:40
50Fep+J 632 / 632 (0)2009-03-01 13:28:52
51DRGN 632 / 632 (0)2009-03-31 15:03:07
52admstyles 632 / 632 (0)2009-04-06 01:34:04
53XenoSG 632 / 632 (0)2009-04-07 19:49:57
54Ezzo 632 / 632 (0)2009-04-12 22:20:59
55Trick Master Mint 632 / 632 (0)2009-04-26 09:20:43
56DannyS86 632 / 632 (0)2009-04-28 22:04:08
57[Pad Perfects] red_dragon 632 / 632 (0)2009-05-04 21:16:54
58mr.miyagi 632 / 632 (0)2009-05-11 02:41:13
59papayasown 632 / 632 (0)2009-05-12 09:17:48
60Belon 632 / 632 (0)2009-05-18 21:31:54
61Zebra 632 / 632 (0)2009-06-03 13:55:23
62TigA 632 / 632 (0)2009-06-19 23:37:18
63ph0en1x 632 / 632 (0)2009-06-20 21:15:00
64MusicalRose 632 / 632 (0)2009-07-23 21:25:27
65WINDSTEP 632 / 632 (0)2009-07-25 14:21:03
66Will 632 / 632 (0)2009-08-25 01:52:17
67sourpatch 632 / 632 (0)2009-08-25 04:48:47
68-Team PAP- 3X 632 / 632 (0)2009-08-31 00:22:09
69Vito 632 / 632 (0)2009-09-04 02:45:52
70Jimbo22291 632 / 632 (0)2009-09-16 00:01:49
71jomy82 632 / 632 (0)2009-10-26 23:22:04
72Overgate-7152 632 / 632 (0)2009-11-19 12:13:46
73discovigilante 632 / 632 (0)2010-01-20 07:23:44
74nnnnnevets 632 / 632 (0)2010-03-25 22:51:52
75MAAAX_himself 632 / 632 (0)2010-03-30 18:15:06
76nemesis 632 / 632 (0)2010-06-26 02:59:59
77Marco Polo 632 / 632 (0)2010-07-01 18:30:36
78WAY! 632 / 632 (0)2011-01-19 01:41:48
79Wulfgearr 632 / 632 (0)2011-03-10 03:09:59
80vagabond 632 / 632 (0)2011-06-17 01:01:15
81Faker13 632 / 632 (0)2012-01-10 04:08:30
82SDN.DiscoBobbyPARANOiA 632 / 632 (0)2012-01-11 23:30:08
83seishinbyou 632 / 632 (0)2012-01-16 14:37:53
84d00d 632 / 632 (0)2012-08-27 10:51:38
85NChiko 632 / 632 (0)2012-11-13 15:33:18
86ddrlizyand eddie 632 / 632 (0)2013-02-12 11:30:48
87Boxy 632 / 632 (0)2013-02-22 12:46:19
88Regulator 632 / 632 (0)2013-08-18 21:30:25
89AndyBurnsDDR270 632 / 632 (0)2015-10-04 22:15:36
90Kalek 631 / 632 (1)2008-10-23 14:31:58
91breakdownpyk 631 / 632 (1)2008-10-23 16:10:53
92Justin "Salty Jamalty" W. Bader 631 / 632 (1)2008-10-23 17:36:29
93GameworksScrub 631 / 632 (1)2008-10-24 18:25:45
94Dancetyger 631 / 632 (1)2008-10-25 21:08:11
95Ninevolt 631 / 632 (1)2008-10-26 03:47:01
96Zachary"DA BUSSINESS/BIG CITY SLIDER"Joseph Bader 631 / 632 (1)2008-12-21 21:41:17
97thao 631 / 632 (1)2009-01-13 16:37:20
98seifer187 631 / 632 (1)2009-06-05 12:50:14
99Samus Hikaru 631 / 632 (1)2009-06-21 11:49:51
100Lenni 631 / 632 (1)2010-01-19 21:50:42
101Cerecel 631 / 632 (1)2010-05-11 18:50:45
102mistaFOO 631 / 632 (1)2012-08-11 19:08:51
103Sisco 630 / 632 (2)2008-10-23 07:20:29
104Big B 630 / 632 (2)2008-10-23 22:49:21
105Holland 630 / 632 (2)2008-11-02 15:19:53
106--muffinz.jotranny.bitsaglass-- 630 / 632 (2)2008-11-11 13:53:56
107SpenCity 630 / 632 (2)2009-02-26 12:23:10
108jacob_foster 630 / 632 (2)2009-12-06 00:46:26
109Souji 630 / 632 (2)2010-02-05 15:21:52
110lildrchris25 630 / 632 (2)2012-07-16 20:52:27
111Mami 629 / 632 (3)2009-07-10 11:17:01
112Amalgamayne 629 / 632 (3)2009-07-31 23:20:50
113King of Light 628 / 632 (4)2009-04-13 17:44:23
114Shoes290 627 / 632 (5)2008-10-28 14:40:08
115mrg06 627 / 632 (5)2008-10-29 23:16:19
116Chubaka 627 / 632 (5)2009-06-06 16:22:54
117Chikito^2 627 / 632 (5)2009-08-03 22:58:17
118MixMasterLar 627 / 632 (5)2010-01-03 23:29:34
119MS.Moonlight-Dumarys8 627 / 632 (5)2010-02-23 00:34:41
120Flayd 627 / 632 (5)2012-08-07 21:38:47
121GERARDAMO 626 / 632 (6)2008-11-06 12:42:24
122PA System 626 / 632 (6)2008-11-10 01:35:43
123ch 626 / 632 (6)2009-03-28 23:54:48
124DDRGirl0105 626 / 632 (6)2009-12-15 21:35:50
125TGRP - Neon Kel 626 / 632 (6)2010-03-21 14:58:34
126Wolfman2000 626 / 632 (6)2011-10-07 17:51:01
127[TG]Fade 625 / 632 (7)2008-11-27 22:16:12
128504SKA 625 / 632 (7)2009-05-26 12:27:56
129Old Man Luis 625 / 632 (7)2010-03-13 13:32:08
130TGRP.DJay Eckoman 625 / 632 (7)2013-03-10 22:23:46
131NWFL.Bumm 624 / 632 (8)2008-10-29 13:10:54
132Kev NOLA 624 / 632 (8)2009-08-13 22:49:48
133OshawaACE 623 / 632 (9)2008-11-15 10:38:49
134enjoi_ 622 / 632 (10)2011-01-29 18:36:51
135BBM 621 / 632 (11)2008-10-23 16:25:06
136luckyneko 621 / 632 (11)2009-02-04 09:59:50
137DBFriday 621 / 632 (11)2009-04-28 22:16:34
138sashoto 620 / 632 (12)2008-10-29 03:22:29
139IXAM [JOEGELLI] 619 / 632 (13)2008-10-23 18:00:46
140Takashaz 619 / 632 (13)2008-11-23 01:20:32
141Oraco 619 / 632 (13)2011-11-10 18:10:47
142megabeatmanmania 617 / 632 (15)2009-06-30 00:25:50
143Slippy [TSPS!?] 615 / 632 (17)2008-10-27 00:30:39
144Furang 615 / 632 (17)2009-12-30 07:49:34
145zAkAtAk 615 / 632 (17)2013-02-06 18:44:09
146ADavalosJR 614 / 632 (18)2009-04-27 23:41:04
147CrzyLgz 612 / 632 (20)2009-02-20 14:45:56
148wakassjak 612 / 632 (20)2011-01-06 15:43:57
149OMG Paige! 612 / 632 (20)2011-01-22 19:15:46
150melink14 611 / 632 (21)2008-10-24 02:11:32
151x777x 611 / 632 (21)2009-04-05 06:48:08
152Wordhiezel 610 / 632 (22)2008-12-04 00:36:53
153ProTosS 609 / 632 (23)2009-01-30 15:58:40
154chennymountain 609 / 632 (23)2010-05-08 16:58:17
155wschmrdr 607 / 632 (25)2008-10-23 22:14:37
156[mixi] 605 / 632 (27)2009-09-08 04:24:55
157ver2 603 / 632 (29)2011-06-11 20:49:36
158MAJO 602 / 632 (30)2008-10-23 22:39:15
159TimeSpaceMage 594 / 632 (38)2009-01-25 23:10:48
160TSMage 594 / 632 (38)2013-09-10 10:03:00
161Duke_Nukem02 577 / 632 (55)2008-11-10 17:00:06
162Wani 573 / 632 (59)2008-10-23 08:06:57
163PticaKiwi 557 / 632 (75)2009-09-12 05:13:07
164hellen 504 / 632 (128)2009-11-07 07:08:15

Home |  Forum |  Syncopedia |  User List |  Report Bug |  Contact Us